EW6143 Weather Reports


time (UTC)temp
C
wind
direction
speed
KPH
gust
KPH
rain 1hr
cm
rain 24hr
cm
rain mn
cm
humidity
%
barometer
mb
20260902064534 28 311 4.8 12.9 0.00 0.00 0.00 64 1015.6
20260902061552 29 286 4.8 12.9 0.00 0.00 0.00 63 1015.6
20260902051533 30 319 3.2 9.7 0.00 0.00 0.00 63 1015.4
20260902043033 30 263 6.4 12.9 0.00 0.00 0.00 60 1015.3
20260902041539 31 295 4.8 19.3 0.00 0.00 0.00 58 1015.1
20260902031538 32 257 1.6 8.0 0.00 0.00 0.00 52 1014.6
20260902030035 32 275 3.2 9.7 0.00 0.00 0.00 51 1014.4
20260902023038 32 0 1.6 6.4 0.00 0.00 0.00 51 1014.0
20260902021535 33 290 3.2 9.7 0.00 0.00 0.00 51 1013.8
20260902020034 33 0 1.6 9.7 0.00 0.00 0.00 51 1013.6
20260902013034 33 282 3.2 11.3 0.00 0.00 0.00 49 1013.1
20260902011535 34 278 4.8 12.9 0.00 0.00 0.00 48 1013.1
20260902010034 35 286 3.2 6.4 0.00 0.00 0.00 44 1012.9
20260902004536 35 275 1.6 6.4 0.00 0.00 0.00 44 1012.8
20260902001553 35 310 1.6 6.4 0.00 0.00 0.00 43 1013.0
20260902000037 35 301 3.2 12.9 0.00 0.00 0.00 42 1013.1
20260901234533 36 261 6.4 16.1 0.00 0.00 0.00 41 1013.2
20260901231538 36 279 4.8 16.1 0.00 0.00 0.00 41 1013.4
20260901230038 36 264 3.2 12.9 0.00 0.00 0.00 41 1013.4
20260901224533 35 289 6.4 16.1 0.00 0.00 0.00 42 1013.4
20260901223041 36 285 4.8 12.9 0.00 0.00 0.00 41 1013.6
20260901221540 36 246 6.4 17.7 0.00 0.00 0.00 40 1013.5
20260901220033 36 297 8.0 16.1 0.00 0.00 0.00 40 1013.5
20260901214534 37 315 8.0 19.3 0.00 0.00 0.00 38 1013.7
20260901213033 38 307 6.4 17.7 0.00 0.00 0.00 37 1013.7
20260901211535 38 280 3.2 17.7 0.00 0.00 0.00 36 1013.8
20260901210034 38 300 6.4 22.5 0.00 0.00 0.00 37 1013.9
20260901204534 37 275 9.7 22.5 0.00 0.00 0.00 37 1013.9
20260901203037 37 261 6.4 17.7 0.00 0.00 0.00 40 1014.2
20260901201532 37 194 3.2 11.3 0.00 0.00 0.00 39 1014.5
20260901200039 36 279 6.4 14.5 0.00 0.00 0.00 42 1014.7
20260901194534 36 296 3.2 12.9 0.00 0.00 0.00 45 1014.9
20260901193036 37 152 4.8 14.5 0.00 0.00 0.00 42 1015.2
20260901191551 36 187 8.0 19.3 0.00 0.00 0.00 43 1015.4
20260901190036 36 215 6.4 14.5 0.00 0.00 0.00 44 1015.7
20260901184540 36 221 9.7 17.7 0.00 0.00 0.00 45 1015.9
20260901183046 36 172 3.2 16.1 0.00 0.00 0.00 44 1016.2
20260901181535 36 240 6.4 16.1 0.00 0.00 0.00 44 1016.5
20260901180033 36 309 8.0 16.1 0.00 0.00 0.00 43 1016.7
20260901174541 36 348 1.6 17.7 0.00 0.00 0.00 45 1017.1
20260901173045 35 336 1.6 11.3 0.00 0.00 0.00 47 1017.3
20260901171535 35 228 6.4 19.3 0.00 0.00 0.00 48 1017.5
20260901170043 34 284 6.4 14.5 0.00 0.00 0.00 51 1017.5
20260901164541 33 339 6.4 14.5 0.00 0.00 0.00 49 1017.7
20260901163036 34 288 6.4 14.5 0.00 0.00 0.00 51 1017.8
20260901161549 34 346 3.2 12.9 0.00 0.00 0.00 51 1017.7
20260901160035 34 355 4.8 11.3 0.00 0.00 0.00 51 1017.7
20260901154537 33 360 3.2 9.7 0.00 0.00 0.00 53 1017.8
20260901153045 33 327 1.6 9.7 0.00 0.00 0.00 55 1017.8
20260901151539 32 355 3.2 8.0 0.00 0.00 0.00 56 1017.7
20260901150041 31 327 1.6 9.7 0.00 0.00 0.00 59 1017.7
20260901144545 31 5 1.6 8.0 0.00 0.00 0.00 60 1017.9
20260901143045 31 350 1.6 8.0 0.00 0.00 0.00 62 1017.9
20260901141546 30 5 1.6 6.4 0.00 0.00 0.00 65 1017.9
20260901140038 29 355 1.6 6.4 0.00 0.00 0.00 67 1017.9
20260901134540 28 279 1.6 8.0 0.00 0.00 0.00 68 1018.0
20260901133035 28 0 1.6 6.4 0.00 0.00 0.00 69 1017.9
20260901131538 27 288 3.2 8.0 0.00 0.00 0.00 71 1017.9
20260901130036 27 0 1.6 4.8 0.00 0.00 0.00 72 1017.8
20260901124540 26 322 0.0 4.8 0.00 0.00 0.00 73 1017.5
20260901123034 26 298 0.0 4.8 0.00 0.00 0.00 73 1017.3
20260901121536 26 0 0.0 0.0 0.00 0.00 0.00 72 1017.1
20260901120038 26 0 0.0 1.6 0.00 0.00 0.00 71 1016.7
20260901114543 26 0 0.0 4.8 0.00 0.00 0.00 71 1016.7
20260901113036 26 0 0.0 4.8 0.00 0.00 0.00 71 1016.6
20260901111538 26 294 1.6 6.4 0.00 0.00 0.00 70 1016.5
20260901110034 26 0 1.6 3.2 0.00 0.00 0.00 70 1016.4
20260901104533 26 0 0.0 0.0 0.00 0.00 0.00 70 1016.3
20260901103034 26 0 0.0 0.0 0.00 0.00 0.00 69 1016.4
20260901101535 26 0 0.0 3.2 0.00 0.00 0.00 68 1016.4
20260901100034 27 0 0.0 3.2 0.00 0.00 0.00 67 1016.5
20260901094538 27 0 0.0 0.0 0.00 0.00 0.00 66 1016.5
20260901093038 27 0 0.0 0.0 0.00 0.00 0.00 65 1016.6
20260901091536 27 0 0.0 1.6 0.00 0.00 0.00 64 1016.6
20260901090038 28 288 0.0 3.2 0.00 0.00 0.00 63 1016.4
20260901084540 28 0 0.0 4.8 0.00 0.00 0.00 62 1016.3
20260901083038 28 0 0.0 4.8 0.00 0.00 0.00 61 1016.2
20260901081536 28 294 1.6 6.4 0.00 0.00 0.00 60 1016.1
20260901080038 28 329 1.6 4.8 0.00 0.00 0.00 59 1016.1
20260901074544 29 0 0.0 6.4 0.00 0.00 0.00 58 1016.1
20260901073036 29 300 3.2 6.4 0.00 0.00 0.00 56 1016.1